This demonstration page uses our WeatherBlox Daily Observations layout. Learn more.

Left ArrowRight Arrow

34.16533, -84.80231

Hourly Observations for June 18, 2019

Temp ( °F °C ) Dew Point ( °F °C ) Humidity (%) Winds ( mph kmh ) Pressure ( in mb ) Visibility ( mi km ) Precip ( " mm )
12:53 am 00:53 Clear 71 21.7 70 21.1 96 96 SE 3 6 29.99 1016 10 16 0.00 0.00
1:50 am 01:50 Partly Cloudy with Nearby Thunderstorms 72 22 70 21 94 94 Calm 30.02 1016 10 16 0.00 0.00
1:53 am 01:53 Partly Cloudy with Nearby Thunderstorms 72 22.2 70 21.1 94 94 Calm 30.00 1016 10 16 0.00 0.00
2:14 am 02:14 Clear 72 22.2 70 21.1 94 94 Calm 30.02 1016 10 16 0.00 0.00
2:53 am 02:53 Mostly Cloudy 71 21.7 70 21.1 96 96 Calm 29.99 1016 10 16 0.00 0.00
3:53 am 03:53 Clear 70 21.1 70 21.1 100 100 SE 3 6 29.97 1015 10 16 0.00 0.00
4:53 am 04:53 Clear 71 21.7 70 21.1 96 96 Calm 29.96 1015 10 16 0.00 0.00
5:53 am 05:53 Clear 71 21.7 70 21.1 96 96 Calm 29.97 1015 10 16 0.00 0.00
6:22 am 06:22 Mostly Cloudy 71 21.7 70 21.1 96 96 Calm 30.00 1016 10 16 0.00 0.00
6:53 am 06:53 Partly Cloudy 71 21.7 70 21.1 96 96 Calm 29.98 1015 10 16 0.00 0.00
7:48 am 07:48 Mostly Cloudy 72 22 72 22 100 100 Calm 30.01 1016 10 16 0.00 0.00
7:53 am 07:53 Mostly Cloudy 72 22.2 71 21.7 97 97 Calm 29.98 1015 10 16 0.00 0.00
8:26 am 08:26 Mostly Cloudy 73 22.8 71 21.7 94 94 SE 3 6 30.01 1016 10 16 0.00 0.00
8:33 am 08:33 Cloudy 73 22.8 71 21.7 94 94 ESE 3 6 30.01 1016 10 16 0.00 0.00
8:53 am 08:53 Cloudy 74 23.3 72 22.2 94 94 SE 5 7 29.99 1016 10 16 0.00 0.00
9:34 am 09:34 Cloudy 75 23.9 72 22.2 90 90 VRB 3 6 30.00 1016 10 16 0.00 0.00
9:53 am 09:53 Mostly Cloudy 76 24.4 72 22.2 88 88 S 5 7 29.99 1016 10 16 0.00 0.00
10:39 am 10:39 Cloudy with Light Rain 76 24.4 73 22.8 91 91 S 3 6 29.99 1016 4 6 0.01 0.25
10:53 am 10:53 Mostly Cloudy 77 25 73 22.8 88 88 Calm 29.98 1015 10 16 0.01 0.25
11:53 am 11:53 Mostly Cloudy 80 26.7 73 22.8 79 79 Calm 29.97 1015 10 16 0.00 0.00
12:14 pm 12:14 Mostly Sunny 81 27.2 73 22.8 77 77 S 5 7 29.96 1015 10 16 0.00 0.00
12:45 pm 12:45 Mostly Cloudy 79 26.1 72 22.2 79 79 VRB 3 6 29.96 1014 10 16 0.00 0.00
12:53 pm 12:53 Mostly Cloudy 79 26.1 73 22.8 82 82 S 5 7 29.95 1014 10 16 0.00 0.00
1:15 pm 13:15 Partly Cloudy 80 26.7 73 22.8 79 79 VRB 3 6 29.96 1014 10 16 0.00 0.00
1:50 pm 13:50 Mostly Cloudy with Nearby Thunderstorms 81 27 72 22 74 74 NNW 7 11 29.94 1014 10 16 0.00 0.00
1:53 pm 13:53 Mostly Cloudy with Nearby Thunderstorms 80 26.7 72 22.2 76 76 NNW 6 9 29.94 1014 10 16 0.00 0.00
2:30 pm 14:30 Mostly Sunny 79 26.1 71 21.7 77 77 NNE 5 7 29.94 1014 10 16 0.00 0.00
2:53 pm 14:53 Mostly Cloudy with Light Rain 78 25.6 73 22.8 85 85 Calm 29.93 1014 4 6 0.01 0.25
3:00 pm 15:00 Mostly Cloudy with Rain 76 24.4 73 22.8 91 91 Calm 29.94 1014 1 1 0.09 2.29
3:15 pm 15:15 Cloudy with Rain 75 23.9 74 23.3 96 96 Calm 29.94 1014 2 3 0.15 3.81
3:26 pm 15:26 Mostly Cloudy with Light Rain 76 24.4 74 23.3 94 94 Calm 29.93 1014 10 16 0.15 3.81
3:53 pm 15:53 Mostly Cloudy 77 25 74 23.3 90 90 S 3 6 29.92 1013 10 16 0.15 3.81
4:53 pm 16:53 Mostly Cloudy with Light Rain 78 25.6 75 23.9 90 90 S 3 6 29.91 1013 10 16 0.00 0.03
5:53 pm 17:53 Mostly Cloudy 78 25.6 73 22.8 85 85 Calm 29.89 1012 10 16 0.01 0.25
6:53 pm 18:53 Mostly Cloudy 77 25 73 22.8 88 88 S 3 6 29.90 1013 10 16 0.00 0.00
7:53 pm 19:53 Partly Cloudy 75 23.9 71 21.7 88 88 S 5 7 29.89 1012 10 16 0.00 0.00
8:53 pm 20:53 Sunny 73 22.8 69 20.6 87 87 Calm 29.89 1012 10 16 0.00 0.00
9:53 pm 21:53 Clear 71 21.7 68 20 90 90 SSE 6 9 29.89 1012 10 16 0.00 0.00
10:53 pm 22:53 Mostly Cloudy 71 21.7 68 20 90 90 SSE 5 7 29.90 1013 10 16 0.00 0.00

Powered by AerisWeather